Погода в Чамереве

Россия / Владимирская область     56°04′18″N   40°47′41″E
темп.,
°C
ветер,
м/с
пор.,
м/с
влажн.,
%
обл.,
%
осадки,
мм/ч
давл.,
гПа
погр.,
м
1 июля, пт
пт100:00+12с39752 0.0 1015193
03:00+9ссв38835 0.0 1017175
06:00+11св511630 0.0 1017700
09:00+14св68410 0.0 10181386
12:00+18ссв610335 0.0 10181958
15:00+17всв612417 0.0 10192112
18:00+19св412424 0.0 10192273
21:00+12св22705 0.0 102114
2 июля, сб
сб200:00+10с24775 0.0 102258
03:00+9ссз26815 0.0 1022101
06:00+12с38680 0.0 1022213
09:00+19с47465 0.0 1021783
12:00+23с473437 0.0 10202000
15:00+25ссз573526 0.0 10182186
18:00+24ссз57467 0.0 10171663
21:00+18сз286298 0.0 1017201
3 июля, вс
вс300:00+15зсз228296 0.0 101621
03:00+14сз22892 0.0 101516
06:00+17с25790 0.0 1015148
09:00+23ссв46561 0.0 1015853
12:00+26ссв46410 0.0 10151886
15:00+27ссв45380 0.0 10142127
18:00+25св35460 0.0 10141741
21:00+18всв22680 0.0 101614
4 июля, пн
пн400:00+15всв11749 0.0 101711
03:00+13ссв11785 0.0 101710
06:00+17с116967 0.0 101764
09:00+24ссз12479 0.0 1018668
12:00+27с22365 0.0 10172070
15:00+28ссз22335 0.0 10162276
18:00+27сз22423 0.0 1016679
21:00+19ссз11655 0.0 101711
5 июля, вт
вт500:00+17ююв117348 0.0 101711
03:00+16зюз117551 0.0 101711
06:00+19ю1269100 0.0 101756
09:00+25ююз225098 0.0 1017498
12:00+29зюз2343100 0.0 10151742
15:00+27з3549100 0.0 10151214
18:00+19юв369248 2.3 1015108
21:00+19зюз229593 4.1 101535